FLOCK 3K-1 (43894 NORAD) Tracking and Keplerian Element Data

This shows tracking and keplerian element data for the satellite.

Feedback or suggestion? Click here.




ElementValue
Catalog43894
NameFLOCK 3K-1
Epoch Orbit391
Epoch Day21.76463721
Epoch Year2019
RAAN290.9621
Inclination97.2995
Eccentricity0.002517
Argument of Perigee154.6371
Mean Anonmoly205.6108
Mean Motion15.23437297
Decay Rate6.33E-06
L11 43894U 18111U 19021.76463721 .00000633 00000-0 29269-4 0 9993
L22 43894 97.2995 290.9621 0025170 154.6371 205.6108 15.23437297 3910

Live tracking and technical data element details for FLOCK 3K-1 (NORAD 43894). FLOCK 3K-1 can be tracked NOW for your location showing map with azimuth and elevation plus other details from your city location.

Track the satellite on the map from your city or location and see movement details for azimuth, elevation, latitude, longitude, range, height, and movement on the map or in text.







IsCatalogInMostPopularTable: catalog: 43894, numindb: 24
Update: records affected: 1



GetName: 43894 FLOCK 3K-1

Hit Count: updated at: Wed, 23 Jan 2019 03:23:00 GMT